Погода в Орозеи

Италия     40°22′43″N   9°41′50″E
темп.,
°C
ветер,
м/с
пор.,
м/с
влажн.,
%
обл.,
%
осадки,
мм/ч
давл.,
гПа
погр.,
м
15 мая, сб
сб1523:00+12з715770 0.0 1012812
02:00+14зсз6146489 0.0 1012943
05:00+14зсз613698 0.0 10131039
08:00+15зсз51362100 0.0 1014993
11:00+18зсз71148100 0.0 10151019
14:00+21з6941100 0.0 10141168
17:00+21з4747100 0.0 10141036
20:00+17з3462100 0.0 101468
16 мая, вс
вс1623:00+14з3568100 0.0 101588
02:00+13з466399 0.0 1013107
05:00+14з475697 0.0 1011118
08:00+16з4756100 0.0 1012154
11:00+23зюз4742100 0.0 1012551
14:00+25юз5840100 0.0 10111115
17:00+24з384898 0.0 10101151
20:00+19юв1271100 0.0 101039
17 мая, пн
пн1723:00+17з3373100 0.0 101147
02:00+16з3375100 0.0 101152
05:00+15з237868 0.0 101045
08:00+18зсз247231 0.0 1012159
11:00+23з475198 0.0 1013771
14:00+24зсз594074 0.0 1013874
17:00+22зсз584050 0.0 1014754
20:00+18з335174 0.0 101467
18 мая, вт
вт1823:00+14з465286 0.0 1016104
02:00+13з5951100 0.0 1016238
05:00+12з586262 0.0 1016197
08:00+16з47633 0.0 1017392
11:00+20зсз812369 0.0 10181027
14:00+22зсз8123454 0.0 10171098
17:00+20з71433100 0.0 1017958
20:00+16зсз61346100 0.0 1018831
19 мая, ср
ср1923:00+13з3856100 0.0 1021375
02:00+15з6145895 0.0 1020895
05:00+15з51358100 0.0 1019613
08:00+16з510563 0.0 1020591
11:00+20зсз7113666 0.0 1021966
14:00+22зсз7113175 0.0 10201149
17:00+21зсз71133100 0.0 10201011
20:00+16зсз51148100 0.0 1020620